Location: Newark
(4.2170°N, 12.9170°E)
Time: 02:23:23
(UTC+00:00)

Hubble Space Telescope - Visible Passes

Search period start: 16 November 2019 00:00
Search period end: 26 November 2019 00:00
Orbit: 536 x 540 km, 28.5° (Epoch: 14 November)

Date Brightness Start Highest point End Pass type
(mag) Time Alt. Az. Time Alt. Az. Time Alt. Az.
16 Nov 1.4 03:20:35 45° SSW 03:20:35 45° SSW 03:24:12 10° SE visible
17 Nov 2.3 03:10:45 28° S 03:10:45 28° S 03:13:22 10° SE visible
18 Nov 3.0 03:00:52 18° S 03:00:52 18° S 03:02:25 10° SSE visible
19 Nov 3.6 02:50:57 11° S 02:50:57 11° S 02:51:16 10° SSE visible
